Weather History for KAIT - December, 2012

Change the Weather History Date:

Wednesday, December 12, 2012

  Actual Average Record
Temperature  
Mean Temperature 13 °F -  
Max Temperature 30 °F 26 °F 48 °F (1998)
Min Temperature -4 °F 5 °F -19 °F (1962)
Degree Days  
Heating Degree Days 52    
Moisture  
Dew Point 11 °F    
Average Humidity 73    
Maximum Humidity 80    
Minimum Humidity 68    
Precipitation  
Precipitation 0.01 in - - ()
Sea Level Pressure  
Sea Level Pressure 29.85 in    
Wind  
Wind Speed 2 mph (SE)    
Max Wind Speed 13 mph    
Max Gust Speed -    
Visibility 10 miles    
Events      
Averages and records for this station are not official NWS values.
T = Trace of Precipitation, MM = Missing Value Source: NWS Daily Summary

Daily Weather History Graph

Daily Weather History Graph

Search for Another Location

Airport or City:

Trip Planner

Search our weather history database for the weather conditions in past years. The results will help you decide how hot, cold, wet, or windy it might be!

Date:

Astronomy

Dec. 12, 2012 Rise Set
Actual Time 7:49 AM CST 4:27 PM CST
Civil Twilight 7:15 AM CST 5:02 PM CST
Nautical Twilight 6:36 AM CST 5:40 PM CST
Astronomical Twilight 5:59 AM CST 6:17 PM CST
Moon 6:53 AM CST (12/12) 4:06 PM CST (12/12)
Length of Visible Light 9h 47m
Length of Day
8h 37m
Waning Crescent, 1% of the Moon is Illuminated
Dec 12
Waning Crescent
Dec 13
New
Dec 19
First Quarter
Dec 28
Full
Jan 4
Last Quarter

Hourly Weather History & Observations

Time (CST) Temp. Windchill Dew Point Humidity Pressure Visibility Wind Dir Wind Speed Gust Speed Precip Events Conditions
12:12 AM -4.0 °F - -11.2 °F 71% 29.94 in 10.0 mi Calm Calm - N/A   Clear
12:32 AM -4.0 °F - -11.2 °F 71% 29.94 in 10.0 mi Calm Calm - N/A   Clear
12:52 AM -4.0 °F - -11.2 °F 71% 29.94 in 10.0 mi Calm Calm - N/A   Clear
1:13 AM -4.0 °F - -11.2 °F 71% 29.94 in 10.0 mi Calm Calm - N/A   Clear
1:52 AM -0.4 °F - -7.6 °F 72% 29.94 in 10.0 mi Calm Calm - N/A   Clear
2:13 AM -0.4 °F - -7.6 °F 72% 29.93 in 10.0 mi Calm Calm - N/A   Clear
2:32 AM 1.4 °F - -5.8 °F 72% 29.93 in 10.0 mi Calm Calm - N/A   Clear
2:52 AM 1.4 °F - -5.8 °F 72% 29.92 in 10.0 mi Calm Calm - N/A   Clear
3:13 AM 3.2 °F - -2.2 °F 78% 29.92 in 10.0 mi Calm Calm - N/A   Clear
3:52 AM 6.8 °F - -0.4 °F 72% 29.91 in 10.0 mi Calm Calm - N/A   Scattered Clouds
4:13 AM 6.8 °F - -0.4 °F 72% 29.91 in 10.0 mi Calm Calm - N/A   Clear
4:32 AM 6.8 °F - 1.4 °F 79% 29.91 in 10.0 mi Calm Calm - N/A   Clear
4:52 AM 8.6 °F 2.0 °F 1.4 °F 73% 29.91 in 10.0 mi ESE 3.5 mph - N/A   Clear
5:13 AM 8.6 °F 2.0 °F 1.4 °F 73% 29.91 in 10.0 mi SE 3.5 mph - N/A   Clear
5:52 AM 8.6 °F - 1.4 °F 73% 29.90 in 10.0 mi Calm Calm - N/A   Clear
6:12 AM 8.6 °F 0.1 °F 3.2 °F 79% 29.89 in 10.0 mi ESE 4.6 mph - N/A   Clear
6:32 AM 8.6 °F 0.1 °F 3.2 °F 79% 29.87 in 10.0 mi ESE 4.6 mph - N/A   Clear
6:53 AM 10.4 °F 2.2 °F 3.2 °F 73% 29.86 in 10.0 mi ESE 4.6 mph - N/A   Scattered Clouds
7:13 AM 10.4 °F 0.8 °F 5.0 °F 79% 29.84 in 10.0 mi ESE 5.8 mph - N/A   Scattered Clouds
7:32 AM 12.2 °F 6.1 °F 6.8 °F 79% 29.84 in 10.0 mi East 3.5 mph - N/A   Mostly Cloudy
7:53 AM 12.2 °F 4.3 °F 6.8 °F 79% 29.84 in 10.0 mi ESE 4.6 mph - N/A   Mostly Cloudy
8:13 AM 15.8 °F 8.6 °F 8.6 °F 73% 29.83 in 10.0 mi ESE 4.6 mph - N/A   Mostly Cloudy
8:32 AM 15.8 °F 8.6 °F 8.6 °F 73% 29.83 in 10.0 mi ESE 4.6 mph - N/A   Scattered Clouds
8:53 AM 17.6 °F 10.7 °F 10.4 °F 73% 29.83 in 10.0 mi ESE 4.6 mph - N/A   Clear
9:13 AM 19.4 °F 10.4 °F 12.2 °F 74% 29.83 in 10.0 mi SE 6.9 mph - N/A   Clear
9:32 AM 19.4 °F 10.4 °F 12.2 °F 74% 29.83 in 10.0 mi SE 6.9 mph - N/A   Clear
9:53 AM 21.2 °F 10.9 °F 12.2 °F 68% 29.83 in 10.0 mi SE 9.2 mph - N/A   Clear
10:13 AM 21.2 °F 12.6 °F 12.2 °F 68% 29.82 in 10.0 mi SE 6.9 mph - N/A   Clear
11:12 AM 23.0 °F 13.9 °F 15.8 °F 74% 29.81 in 10.0 mi SE 8.1 mph - N/A   Clear
11:32 AM 24.8 °F 16.1 °F 15.8 °F 69% 29.80 in 10.0 mi SE 8.1 mph - N/A   Clear
11:53 AM 24.8 °F 14.6 °F 15.8 °F 69% 29.80 in 10.0 mi SE 10.4 mph - N/A   Clear
12:12 PM 24.8 °F 13.4 °F 15.8 °F 69% 29.80 in 10.0 mi SSE 12.7 mph - N/A   Clear
12:53 PM 26.6 °F 17.5 °F 17.6 °F 69% 29.79 in 10.0 mi SE 9.2 mph - N/A   Mostly Cloudy
1:12 PM 26.6 °F 16.8 °F 17.6 °F 69% 29.78 in 10.0 mi SSE 10.4 mph - N/A   Overcast
1:32 PM 26.6 °F 16.2 °F 17.6 °F 69% 29.77 in 10.0 mi SSE 11.5 mph - N/A   Overcast
1:53 PM 26.6 °F 17.5 °F 17.6 °F 69% 29.77 in 10.0 mi South 9.2 mph - N/A   Scattered Clouds
2:12 PM 28.4 °F 20.4 °F 19.4 °F 69% 29.77 in 10.0 mi SSE 8.1 mph - N/A   Clear
2:32 PM 28.4 °F 23.3 °F 19.4 °F 69% 29.77 in 10.0 mi SSE 4.6 mph - N/A   Clear
2:52 PM 28.4 °F 20.4 °F 19.4 °F 69% 29.77 in 10.0 mi SE 8.1 mph - N/A   Clear
3:12 PM 28.4 °F 22.2 °F 19.4 °F 69% 29.77 in 10.0 mi SE 5.8 mph - N/A   Clear
3:33 PM 28.4 °F 22.2 °F 19.4 °F 69% 29.77 in 10.0 mi SE 5.8 mph - N/A   Mostly Cloudy
3:52 PM 28.4 °F 22.2 °F 21.2 °F 74% 29.77 in 10.0 mi SSE 5.8 mph - N/A   Overcast
4:12 PM 30.2 °F 26.7 °F 21.2 °F 69% 29.78 in 10.0 mi South 3.5 mph - N/A   Overcast
4:33 PM 30.2 °F - 21.2 °F 69% 29.79 in 10.0 mi Calm Calm - N/A   Scattered Clouds
4:52 PM 30.2 °F - 21.2 °F 69% 29.80 in 10.0 mi Calm Calm - N/A   Unknown
5:12 PM 28.4 °F - 19.4 °F 69% 29.80 in 10.0 mi Calm Calm - N/A   Unknown
5:33 PM 28.4 °F - 19.4 °F 69% 29.81 in 10.0 mi Calm Calm - 0.01 in   Unknown
5:52 PM 26.6 °F - 19.4 °F 74% 29.81 in 10.0 mi Calm Calm - 0.01 in   Unknown
6:12 PM 24.8 °F - 19.4 °F 80% 29.82 in 10.0 mi Calm Calm - N/A   Clear
6:52 PM 26.6 °F - 19.4 °F 74% 29.82 in 10.0 mi Calm Calm - N/A   Clear
7:12 PM 26.6 °F - 19.4 °F 74% 29.82 in 10.0 mi Calm Calm - N/A   Mostly Cloudy
7:52 PM 26.6 °F - 19.4 °F 74% 29.82 in 10.0 mi Calm Calm - N/A   Mostly Cloudy
8:12 PM 26.6 °F - 19.4 °F 74% 29.84 in 10.0 mi Calm Calm - N/A   Unknown
8:52 PM 26.6 °F - 21.2 °F 80% 29.85 in 10.0 mi Calm Calm - N/A   Overcast
9:12 PM 26.6 °F - 21.2 °F 80% 29.85 in 10.0 mi Calm Calm - N/A   Unknown
9:33 PM 28.4 °F - 21.2 °F 74% 29.86 in 10.0 mi Calm Calm - N/A   Overcast
9:53 PM 28.4 °F - 21.2 °F 74% 29.86 in 10.0 mi Calm Calm - N/A   Unknown
10:12 PM 26.6 °F - 21.2 °F 80% 29.86 in 10.0 mi Calm Calm - N/A   Unknown
10:52 PM 26.6 °F - 21.2 °F 80% 29.87 in 10.0 mi Calm Calm - N/A   Unknown
11:12 PM 28.4 °F - 21.2 °F 74% 29.87 in 10.0 mi Calm Calm - N/A   Overcast
11:33 PM 28.4 °F - 21.2 °F 74% 29.88 in 10.0 mi Calm Calm - N/A   Overcast
11:52 PM 26.6 °F - 19.4 °F 74% 29.88 in 10.0 mi Calm Calm - N/A   Unknown